User: anonymous   Login
Location: ?????????
(38.5999°N, 22.7695°E)
Time: 18:25:10
(UTC+00:00)
Language:

Cosmos 1741 Rocket - Orbit

View from above orbital plane
View from above orbital plane
View from above satellite
View from above satellite

Ground track
Ground track

The orbit data is extracted from the following two-line orbital elements,

1 16682U 86030B   24204.94348027  .00000661  00000-0  23331-3 0  9997
2 16682  74.0255 143.4498 0015425 216.4724 206.7355 14.36651396  3021
Epoch (UTC): 22 July 2024 22:38:36
Eccentricity: 0.0015425
inclination: 74.0255°
perigee height: 758 km
apogee height: 780 km
right ascension of ascending node: 143.4498°
argument of perigee: 216.4724°
revolutions per day: 14.36651396
mean anomaly at epoch: 206.7355°
orbit number at epoch: 302

The dashed part of the orbit path shows where the satellite is in the earth's shadow,  

DLR